Zurück zum Katalog

STARLINK-6090

AktivKommunikationVLEO
NORAD 56095·PAYLOAD·🇺🇸 United States

Gestartet Mar 29, 2023 von Cape Canaveral Space Force Station

Loading…

Nächste Überflüge (nächste 24 Stunden)

TLE

AktuellSource: CelesTrak SupGP

Epoche: Sep 15, 2026, 03:11 UTC

1 56095C 23046C   26258.13312500  .00033478  00000+0  12127-2 0  2585
2 56095  43.0003 171.4053 0001530 254.1060 254.1169 15.27558152    15

Verfolge STARLINK-6090 in Echtzeit mit AllMySat

Download on the App Store